RH
48 44 41 39 38 37 35 34 33 33 33 33 34 36 37 38 39 41 44 47 48 47 45 46 44 42 38
32 29 27 24 22 21 20 20 19 18 18 18 19 20 22 25 27 29 32 36 39 43 46 44 46 46 43
17 15 13 11 10 9 8 7 7 6 6 6 6 7 8 10 12 16 19 23 27 32 38 42 44 45 48
9 7 5 4 4 4 4 4 4 4 4 4 4 4 4 4 4 5 8 11 16 20 25 31 38 45 50
5 5 6 7 9 9 9 9 8 8 8 9 8 9 8 6 6 6 6 6 8 13 17 22 27 38 48
9 10 11 11 14 19 23 24 23 24 24 20 17 12 12 12 12 11 10 8 6 7 10 17 28 36 45
14 19 21 24 27 31 33 35 34 29 38 35 28 25 23 19 16 15 14 13 12 9 7 10 23 66 72
16 16 22 31 42 58 61 53 45 38 61 57 39 41 38 34 30 26 20 18 16 13 12 9 8 23 99
9 12 20 36 60 70 67 73 68 55 62 71 54 57 52 42 39 36 32 26 22 18 14 13 11 11 26
10 15 28 40 54 65 66 67 65 49 56 90 78 90 64 45 44 42 39 35 30 24 19 15 14 15 62
13 17 23 30 40 48 55 58 58 57 63 87 71 70 74 58 45 38 31 26 38 40 35 21 15 20 42
18 21 27 32 38 45 52 58 67 68 69 84 77 69 60 47 34 29 39 51 59 56 52 30 23 35 65
23 24 27 33 39 45 49 56 61 72 82 85 81 65 58 52 41 32 30 31 56 70 86 44 45 58 81
38 43 45 42 43 49 46 50 53 61 78 89 92 88 74 66 59 38 42 36 56 72 98 80 81 89 92
50 58 64 68 69 69 67 63 62 62 59 76 88 94 90 85 77 75 60 49 76 85 100 75 74 95 97
59 66 69 69 69 72 79 81 78 81 80 78 74 73 77 82 99 80 78 82 84 85 99 91 97 98 98
64 69 67 66 69 74 79 80 81 84 87 92 90 87 74 64 73 93 78 86 82 93 99 99 99 97 96
Wind_Speed
41 42 45 48 49 51 52 53 53 52 53 53 53 53 53 53 51 48 47 45 42 40 40 39 37 34 31
49 46 48 48 51 52 53 55 56 55 55 55 55 55 54 54 53 52 51 50 48 47 45 43 43 40 37
54 54 53 52 54 53 54 54 55 56 56 55 56 55 55 54 53 53 54 53 52 50 49 48 46 45 42
54 56 55 53 53 54 54 52 53 51 51 51 51 50 50 51 52 52 53 54 54 53 51 50 49 48 47
52 53 52 51 51 51 51 52 49 47 45 44 43 44 43 45 48 50 50 51 52 54 55 52 50 49 49
48 47 47 47 47 47 48 48 50 46 45 43 38 38 37 38 40 42 44 47 49 51 54 55 53 50 50
42 43 45 45 46 47 46 46 46 45 45 48 42 42 39 39 37 38 39 40 42 45 48 51 53 50 49
39 42 43 44 43 43 43 46 46 43 43 46 41 42 40 37 35 34 35 36 37 39 40 43 48 50 46
38 38 37 36 35 38 40 42 44 42 40 43 39 41 38 34 32 30 31 33 34 35 37 38 39 43 47
30 29 28 29 31 35 39 42 43 43 39 37 35 34 39 35 32 30 29 28 31 33 35 36 35 35 36
29 29 29 29 30 31 33 36 38 39 36 36 37 36 36 38 32 31 28 25 25 28 31 34 33 31 33
29 29 29 30 30 31 32 32 32 34 33 33 35 34 35 35 34 29 23 23 24 27 30 32 32 28 29
29 30 30 30 30 31 31 31 31 29 29 30 32 32 32 33 34 30 28 24 22 25 24 25 26 25 27
30 31 31 30 29 30 32 31 30 27 24 25 27 30 29 30 31 31 28 28 24 25 16 14 20 21 27
31 32 33 32 32 30 32 32 32 31 27 23 23 26 27 28 29 26 24 22 21 23 16 14 16 17 15
30 31 31 31 30 28 28 29 30 29 28 26 26 24 23 21 24 26 20 20 18 19 12 11 12 8 15
27 28 28 28 27 26 26 27 27 27 25 23 23 25 26 22 17 18 21 17 18 14 9 5 11 15 14
Wind_Direction
292 291 290 290 290 291 291 290 289 288 287 286 285 284 284 283 281 280 278 276 274 273 272 273 275 276 273
296 294 292 291 290 289 289 289 289 288 286 286 284 282 281 280 280 279 277 275 272 270 268 268 270 270 271
298 298 295 294 291 291 290 289 288 288 287 287 285 283 282 280 278 275 274 272 270 268 266 265 264 267 267
296 296 297 298 297 296 293 292 290 287 287 285 282 281 280 278 276 273 270 268 267 266 264 262 260 259 260
295 297 298 299 300 300 299 299 296 295 293 289 288 284 280 276 274 273 272 268 264 261 260 259 257 255 255
299 301 302 304 303 303 302 302 301 303 302 298 293 288 285 279 276 274 273 271 269 264 259 257 254 251 249
304 304 304 304 303 303 302 302 301 302 302 300 300 295 292 285 282 281 279 276 272 269 266 260 256 252 248
301 303 304 306 307 305 303 302 300 300 301 301 300 298 295 291 290 287 283 280 278 275 270 264 261 256 250
306 306 305 305 302 299 302 301 302 303 304 303 303 299 297 294 290 288 285 283 281 278 274 269 261 256 251
309 314 313 310 305 301 302 302 304 306 308 308 307 307 304 302 299 294 289 284 281 277 273 271 268 256 250
319 321 320 316 312 308 304 302 302 301 304 302 302 303 300 302 302 300 299 294 280 279 271 266 264 258 247
318 318 316 314 312 310 308 307 304 304 306 303 302 302 300 299 301 302 305 302 292 292 286 265 257 251 242
314 316 314 313 311 311 311 310 308 309 308 305 302 300 297 297 298 302 308 306 299 303 291 271 258 242 229
313 313 313 312 313 312 312 313 312 312 308 304 300 298 299 297 296 298 303 304 306 311 280 266 260 230 228
309 311 312 311 311 310 309 309 309 310 310 308 300 297 299 299 298 299 298 298 305 316 297 256 261 232 241
307 311 313 314 314 313 311 309 309 309 309 306 303 301 296 293 295 295 293 299 304 315 310 233 233 252 216
305 309 312 315 317 318 317 315 314 313 311 307 301 298 299 304 300 297 292 283 295 300 304 233 216 244 243